| time (UTC) | temp F | wind direction | speed MPH | gust MPH | rain 1hr in | rain 24hr in | rain mn in | humidity % | barometer mb |
| 20260504081555 | 51 | 240 | 0.0 | 0.0 | 0.00 | 0.00 | 0.00 | 32 | 1017.2 |
| 20260504081053 | 51 | 240 | 0.0 | 0.0 | 0.00 | 0.00 | 0.00 | 31 | 1017.2 |
| 20260504080551 | 51 | 240 | 0.0 | 0.0 | 0.00 | 0.00 | 0.00 | 32 | 1017.2 |
| 20260504050535 | 50 | 240 | 0.0 | 0.0 | 0.00 | 0.00 | 0.00 | 29 | 1018.2 |
| 20260504045534 | 49 | 240 | 0.0 | 0.0 | 0.00 | 0.00 | 0.00 | 30 | 1018.3 |
| 20260504045034 | 49 | 240 | 0.0 | 0.0 | 0.00 | 0.00 | 0.00 | 30 | 1018.4 |
| 20260504044540 | 50 | 240 | 0.0 | 0.0 | 0.00 | 0.00 | 0.00 | 30 | 1018.4 |
| 20260504044033 | 50 | 240 | 0.0 | 0.0 | 0.00 | 0.00 | 0.00 | 30 | 1018.4 |
| 20260504043533 | 50 | 240 | 0.0 | 0.0 | 0.00 | 0.00 | 0.00 | 30 | 1018.4 |
| 20260504043033 | 50 | 240 | 0.0 | 0.0 | 0.00 | 0.00 | 0.00 | 30 | 1018.3 |
| 20260504042531 | 50 | 240 | 0.0 | 0.0 | 0.00 | 0.00 | 0.00 | 29 | 1018.4 |
| 20260504042035 | 50 | 240 | 0.0 | 0.0 | 0.00 | 0.00 | 0.00 | 30 | 1018.4 |
| 20260504041532 | 51 | 240 | 0.0 | 0.0 | 0.00 | 0.00 | 0.00 | 30 | 1018.3 |
| 20260504041029 | 51 | 240 | 0.0 | 0.0 | 0.00 | 0.00 | 0.00 | 28 | 1018.3 |
| 20260504040529 | 51 | 240 | 0.0 | 0.0 | 0.00 | 0.00 | 0.00 | 28 | 1018.3 |
| 20260504040028 | 51 | 240 | 0.0 | 0.0 | 0.00 | 0.00 | 0.00 | 28 | 1018.3 |
| 20260504035527 | 51 | 240 | 0.0 | 0.0 | 0.00 | 0.00 | 0.00 | 28 | 1018.2 |
| 20260504035027 | 51 | 240 | 0.0 | 0.0 | 0.00 | 0.00 | 0.00 | 29 | 1018.2 |
| 20260504034528 | 51 | 240 | 0.0 | 0.0 | 0.00 | 0.00 | 0.00 | 29 | 1018.2 |
| 20260504034027 | 51 | 240 | 0.0 | 0.0 | 0.00 | 0.00 | 0.00 | 29 | 1018.2 |
| 20260504033529 | 51 | 240 | 0.0 | 0.0 | 0.00 | 0.00 | 0.00 | 28 | 1018.2 |
| 20260504033027 | 51 | 240 | 0.0 | 0.0 | 0.00 | 0.00 | 0.00 | 28 | 1018.2 |
| 20260504032527 | 51 | 240 | 0.0 | 0.0 | 0.00 | 0.00 | 0.00 | 28 | 1018.1 |
| 20260504032027 | 51 | 240 | 0.0 | 0.0 | 0.00 | 0.00 | 0.00 | 28 | 1018.0 |
| 20260504031528 | 51 | 240 | 0.0 | 0.0 | 0.00 | 0.00 | 0.00 | 28 | 1017.9 |
| 20260504031026 | 51 | 240 | 0.0 | 0.0 | 0.00 | 0.00 | 0.00 | 29 | 1018.0 |
| 20260504030526 | 51 | 240 | 0.0 | 0.0 | 0.00 | 0.00 | 0.00 | 29 | 1018.1 |
| 20260504030036 | 51 | 240 | 0.0 | 0.0 | 0.00 | 0.00 | 0.00 | 28 | 1018.1 |
| 20260504025526 | 50 | 240 | 0.0 | 0.0 | 0.00 | 0.00 | 0.00 | 29 | 1018.0 |
| 20260504025029 | 50 | 240 | 0.0 | 0.0 | 0.00 | 0.00 | 0.00 | 29 | 1017.9 |
| 20260504024526 | 50 | 240 | 0.0 | 0.0 | 0.00 | 0.00 | 0.00 | 29 | 1018.0 |
| 20260504024029 | 50 | 240 | 0.0 | 0.0 | 0.00 | 0.00 | 0.00 | 30 | 1017.9 |
| 20260504023527 | 50 | 240 | 0.0 | 0.0 | 0.00 | 0.00 | 0.00 | 30 | 1018.0 |
| 20260504023026 | 49 | 240 | 0.0 | 0.0 | 0.00 | 0.00 | 0.00 | 31 | 1017.9 |
| 20260504022527 | 49 | 240 | 0.0 | 0.0 | 0.00 | 0.00 | 0.00 | 32 | 1017.9 |
| 20260504022027 | 49 | 240 | 0.0 | 0.0 | 0.00 | 0.00 | 0.00 | 33 | 1017.9 |
| 20260504021528 | 49 | 240 | 0.0 | 0.0 | 0.00 | 0.00 | 0.00 | 33 | 1017.8 |
| 20260504021026 | 49 | 240 | 0.0 | 0.0 | 0.00 | 0.00 | 0.00 | 33 | 1017.8 |
| 20260504020524 | 49 | 240 | 0.0 | 0.0 | 0.00 | 0.00 | 0.00 | 34 | 1017.8 |
| 20260504020024 | 49 | 240 | 0.0 | 0.0 | 0.00 | 0.00 | 0.00 | 33 | 1017.7 |
| 20260504015524 | 49 | 240 | 0.0 | 0.0 | 0.00 | 0.00 | 0.00 | 33 | 1017.6 |
| 20260504015027 | 49 | 240 | 0.0 | 0.0 | 0.00 | 0.00 | 0.00 | 33 | 1017.5 |
| 20260504014526 | 49 | 240 | 0.0 | 0.0 | 0.00 | 0.00 | 0.00 | 33 | 1017.5 |
| 20260504014028 | 49 | 240 | 0.0 | 0.0 | 0.00 | 0.00 | 0.00 | 34 | 1017.5 |
| 20260504013528 | 50 | 240 | 0.0 | 0.0 | 0.00 | 0.00 | 0.00 | 34 | 1017.5 |
| 20260504013025 | 50 | 240 | 0.0 | 0.0 | 0.00 | 0.00 | 0.00 | 34 | 1017.4 |
| 20260504012525 | 50 | 240 | 0.0 | 0.0 | 0.00 | 0.00 | 0.00 | 32 | 1017.5 |
| 20260504012024 | 50 | 240 | 0.0 | 0.0 | 0.00 | 0.00 | 0.00 | 31 | 1017.5 |
| 20260504011524 | 50 | 240 | 0.0 | 0.0 | 0.00 | 0.00 | 0.00 | 31 | 1017.5 |
| 20260504011022 | 50 | 240 | 0.0 | 0.0 | 0.00 | 0.00 | 0.00 | 31 | 1017.5 |
| 20260504010525 | 50 | 240 | 0.0 | 0.0 | 0.00 | 0.00 | 0.00 | 32 | 1017.4 |
| 20260504010023 | 51 | 240 | 0.0 | 0.0 | 0.00 | 0.00 | 0.00 | 31 | 1017.3 |
| 20260504005525 | 51 | 240 | 0.0 | 0.0 | 0.00 | 0.00 | 0.00 | 32 | 1017.3 |
| 20260504005023 | 51 | 240 | 0.0 | 0.0 | 0.00 | 0.00 | 0.00 | 33 | 1017.3 |
| 20260504004524 | 51 | 240 | 0.0 | 0.0 | 0.00 | 0.00 | 0.00 | 31 | 1017.2 |
| 20260504004023 | 52 | 240 | 0.0 | 0.0 | 0.00 | 0.00 | 0.00 | 31 | 1017.2 |
| 20260504003522 | 52 | 240 | 0.0 | 0.0 | 0.00 | 0.00 | 0.00 | 30 | 1017.2 |
| 20260504003022 | 53 | 240 | 0.0 | 0.0 | 0.00 | 0.00 | 0.00 | 29 | 1017.1 |
| 20260504002522 | 53 | 240 | 0.0 | 1.0 | 0.00 | 0.00 | 0.00 | 27 | 1017.1 |
| 20260504002022 | 54 | 240 | 0.0 | 1.0 | 0.00 | 0.00 | 0.00 | 27 | 1017.0 |
| 20260504001522 | 54 | 240 | 0.0 | 2.0 | 0.00 | 0.00 | 0.00 | 27 | 1017.0 |
| 20260504001021 | 55 | 240 | 0.0 | 5.0 | 0.00 | 0.00 | 0.00 | 26 | 1017.0 |
| 20260504000521 | 55 | 240 | 0.0 | 5.0 | 0.00 | 0.00 | 0.00 | 25 | 1017.0 |
| 20260504000021 | 55 | 240 | 0.0 | 5.0 | 0.00 | 0.00 | 0.00 | 24 | 1017.0 |
| 20260503235521 | 55 | 239 | 0.0 | 5.0 | 0.00 | 0.00 | 0.00 | 24 | 1016.9 |
| 20260503235021 | 56 | 237 | 0.0 | 8.0 | 0.00 | 0.00 | 0.00 | 24 | 1016.9 |
| 20260503234532 | 56 | 239 | 2.0 | 8.0 | 0.00 | 0.00 | 0.00 | 23 | 1016.8 |
| 20260503234021 | 56 | 195 | 0.0 | 4.0 | 0.00 | 0.00 | 0.00 | 23 | 1016.7 |
| 20260503233520 | 57 | 195 | 1.0 | 4.0 | 0.00 | 0.00 | 0.00 | 23 | 1016.8 |
| 20260503233021 | 57 | 209 | 1.0 | 5.0 | 0.00 | 0.00 | 0.00 | 22 | 1016.8 |
| 20260503232520 | 57 | 227 | 0.0 | 4.0 | 0.00 | 0.00 | 0.00 | 21 | 1016.8 |
| 20260503232021 | 58 | 225 | 0.0 | 4.0 | 0.00 | 0.00 | 0.00 | 21 | 1016.8 |
| 20260503231520 | 58 | 225 | 1.0 | 3.0 | 0.00 | 0.00 | 0.00 | 23 | 1016.8 |
| 20260503231022 | 58 | 225 | 0.0 | 3.0 | 0.00 | 0.00 | 0.00 | 22 | 1016.7 |
| 20260503230522 | 58 | 225 | 1.0 | 3.0 | 0.00 | 0.00 | 0.00 | 21 | 1016.7 |
| 20260503230020 | 59 | 225 | 1.0 | 4.0 | 0.00 | 0.00 | 0.00 | 20 | 1016.7 |
| 20260503225521 | 59 | 225 | 0.0 | 5.0 | 0.00 | 0.00 | 0.00 | 21 | 1016.5 |
| 20260503225022 | 59 | 215 | 1.0 | 5.0 | 0.00 | 0.00 | 0.00 | 20 | 1016.6 |
| 20260503224519 | 59 | 214 | 1.0 | 6.0 | 0.00 | 0.00 | 0.00 | 20 | 1016.5 |
| 20260503224019 | 59 | 207 | 0.0 | 6.0 | 0.00 | 0.00 | 0.00 | 21 | 1016.6 |
| 20260503223521 | 59 | 171 | 2.0 | 8.0 | 0.00 | 0.00 | 0.00 | 19 | 1016.6 |
| 20260503223019 | 60 | 175 | 2.0 | 6.0 | 0.00 | 0.00 | 0.00 | 19 | 1016.5 |
| 20260503222519 | 60 | 191 | 0.0 | 6.0 | 0.00 | 0.00 | 0.00 | 19 | 1016.5 |
| 20260503222022 | 60 | 233 | 1.0 | 7.0 | 0.00 | 0.00 | 0.00 | 20 | 1016.5 |
| 20260503221522 | 61 | 179 | 2.0 | 14.0 | 0.00 | 0.00 | 0.00 | 18 | 1016.6 |
| 20260503221018 | 61 | 195 | 4.0 | 14.0 | 0.00 | 0.00 | 0.00 | 16 | 1016.6 |
| 20260503220519 | 62 | 215 | 3.0 | 7.0 | 0.00 | 0.00 | 0.00 | 16 | 1016.6 |
| 20260503220036 | 63 | 196 | 2.0 | 6.0 | 0.00 | 0.00 | 0.00 | 16 | 1016.7 |
| 20260503215519 | 63 | 177 | 1.0 | 4.0 | 0.00 | 0.00 | 0.00 | 17 | 1016.7 |
| 20260503215017 | 62 | 177 | 0.0 | 6.0 | 0.00 | 0.00 | 0.00 | 16 | 1016.7 |
| 20260503214517 | 63 | 189 | 1.0 | 7.0 | 0.00 | 0.00 | 0.00 | 16 | 1016.7 |
| 20260503214017 | 63 | 215 | 2.0 | 6.0 | 0.00 | 0.00 | 0.00 | 17 | 1016.7 |
| 20260503213516 | 63 | 200 | 1.0 | 6.0 | 0.00 | 0.00 | 0.00 | 17 | 1016.7 |
| 20260503213016 | 63 | 182 | 2.0 | 8.0 | 0.00 | 0.00 | 0.00 | 16 | 1016.8 |
| 20260503212517 | 64 | 220 | 1.0 | 4.0 | 0.00 | 0.00 | 0.00 | 17 | 1016.9 |
| 20260503212018 | 64 | 217 | 1.0 | 7.0 | 0.00 | 0.00 | 0.00 | 17 | 1016.9 |
| 20260503211518 | 63 | 219 | 1.0 | 9.0 | 0.00 | 0.00 | 0.00 | 17 | 1016.9 |
| 20260503211015 | 64 | 267 | 1.0 | 7.0 | 0.00 | 0.00 | 0.00 | 17 | 1016.9 |
| 20260503210514 | 63 | 186 | 0.0 | 6.0 | 0.00 | 0.00 | 0.00 | 17 | 1016.9 |
| 20260503210014 | 63 | 182 | 1.0 | 7.0 | 0.00 | 0.00 | 0.00 | 18 | 1016.9 |
| 20260503205513 | 62 | 234 | 0.0 | 8.0 | 0.00 | 0.00 | 0.00 | 18 | 1016.9 |
| 20260503205013 | 63 | 200 | 2.0 | 9.0 | 0.00 | 0.00 | 0.00 | 15 | 1016.9 |
| 20260503204513 | 63 | 217 | 1.0 | 7.0 | 0.00 | 0.00 | 0.00 | 17 | 1016.8 |
| 20260503204014 | 62 | 191 | 2.0 | 6.0 | 0.00 | 0.00 | 0.00 | 17 | 1016.9 |
| 20260503203512 | 61 | 148 | 2.0 | 8.0 | 0.00 | 0.00 | 0.00 | 17 | 1016.9 |
| 20260503203026 | 61 | 288 | 2.0 | 9.0 | 0.00 | 0.00 | 0.00 | 17 | 1017.0 |
| 20260503202513 | 61 | 184 | 3.0 | 13.0 | 0.00 | 0.00 | 0.00 | 17 | 1017.0 |
| 20260503202013 | 62 | 175 | 3.0 | 13.0 | 0.00 | 0.00 | 0.00 | 16 | 1017.1 |
| 20260503201518 | 63 | 159 | 2.0 | 8.0 | 0.00 | 0.00 | 0.00 | 16 | 1017.1 |
| 20260503201012 | 63 | 252 | 2.0 | 6.0 | 0.00 | 0.00 | 0.00 | 17 | 1017.0 |
| 20260503200511 | 62 | 221 | 1.0 | 9.0 | 0.00 | 0.00 | 0.00 | 16 | 1017.1 |
| 20260503200012 | 63 | 81 | 2.0 | 9.0 | 0.00 | 0.00 | 0.00 | 16 | 1017.3 |
| 20260503195511 | 63 | 196 | 1.0 | 8.0 | 0.00 | 0.00 | 0.00 | 18 | 1017.4 |
| 20260503195009 | 62 | 193 | 2.0 | 8.0 | 0.00 | 0.00 | 0.00 | 16 | 1017.5 |
| 20260503194509 | 62 | 203 | 1.0 | 8.0 | 0.00 | 0.00 | 0.00 | 16 | 1017.4 |
| 20260503194010 | 62 | 193 | 3.0 | 14.0 | 0.00 | 0.00 | 0.00 | 16 | 1017.6 |
| 20260503193513 | 62 | 164 | 3.0 | 14.0 | 0.00 | 0.00 | 0.00 | 15 | 1017.6 |
| 20260503193011 | 61 | 217 | 1.0 | 7.0 | 0.00 | 0.00 | 0.00 | 17 | 1017.7 |
| 20260503192509 | 61 | 211 | 2.0 | 7.0 | 0.00 | 0.00 | 0.00 | 17 | 1017.8 |
| 20260503192007 | 62 | 169 | 2.0 | 7.0 | 0.00 | 0.00 | 0.00 | 16 | 1017.8 |
| 20260503191513 | 62 | 144 | 3.0 | 7.0 | 0.00 | 0.00 | 0.00 | 16 | 1017.9 |
| 20260503191009 | 61 | 118 | 2.0 | 6.0 | 0.00 | 0.00 | 0.00 | 19 | 1018.0 |
| 20260503190505 | 59 | 192 | 2.0 | 6.0 | 0.00 | 0.00 | 0.00 | 19 | 1018.0 |
| 20260503190005 | 59 | 141 | 3.0 | 7.0 | 0.00 | 0.00 | 0.00 | 20 | 1018.1 |
| 20260503185505 | 59 | 208 | 1.0 | 7.0 | 0.00 | 0.00 | 0.00 | 20 | 1018.1 |
| 20260503185005 | 59 | 215 | 2.0 | 8.0 | 0.00 | 0.00 | 0.00 | 21 | 1018.2 |
| 20260503184505 | 59 | 188 | 1.0 | 13.0 | 0.00 | 0.00 | 0.00 | 20 | 1018.4 |
| 20260503184004 | 59 | 175 | 3.0 | 13.0 | 0.00 | 0.00 | 0.00 | 19 | 1018.2 |
| 20260503183504 | 59 | 152 | 2.0 | 13.0 | 0.00 | 0.00 | 0.00 | 19 | 1018.4 |
| 20260503183004 | 60 | 162 | 2.0 | 8.0 | 0.00 | 0.00 | 0.00 | 21 | 1018.3 |
| 20260503182503 | 60 | 158 | 2.0 | 7.0 | 0.00 | 0.00 | 0.00 | 18 | 1018.5 |
| 20260503182005 | 60 | 198 | 1.0 | 8.0 | 0.00 | 0.00 | 0.00 | 22 | 1018.4 |
| 20260503181503 | 59 | 130 | 1.0 | 8.0 | 0.00 | 0.00 | 0.00 | 22 | 1018.4 |
| 20260503181002 | 59 | 256 | 1.0 | 10.0 | 0.00 | 0.00 | 0.00 | 20 | 1018.3 |
| 20260503180503 | 60 | 180 | 3.0 | 10.0 | 0.00 | 0.00 | 0.00 | 19 | 1018.5 |
| 20260503175559 | 58 | 184 | 1.0 | 21.0 | 0.00 | 0.00 | 0.00 | 23 | 1018.4 |
| 20260503175104 | 57 | 177 | 4.0 | 21.0 | 0.00 | 0.00 | 0.00 | 22 | 1018.6 |
| 20260503174559 | 57 | 205 | 2.0 | 9.0 | 0.00 | 0.00 | 0.00 | 24 | 1018.6 |
| 20260503174059 | 56 | 163 | 3.0 | 9.0 | 0.00 | 0.00 | 0.00 | 23 | 1018.7 |
| 20260503173559 | 57 | 183 | 4.0 | 13.0 | 0.00 | 0.00 | 0.00 | 23 | 1018.7 |
| 20260503173103 | 57 | 164 | 3.0 | 11.0 | 0.00 | 0.00 | 0.00 | 23 | 1018.8 |
| 20260503172558 | 57 | 210 | 4.0 | 12.0 | 0.00 | 0.00 | 0.00 | 23 | 1018.8 |
| 20260503172100 | 57 | 193 | 4.0 | 12.0 | 0.00 | 0.00 | 0.00 | 22 | 1019.1 |
| 20260503171558 | 58 | 186 | 3.0 | 8.0 | 0.00 | 0.00 | 0.00 | 22 | 1019.0 |
| 20260503171057 | 58 | 146 | 2.0 | 15.0 | 0.00 | 0.00 | 0.00 | 25 | 1019.0 |
| 20260503170557 | 57 | 208 | 3.0 | 15.0 | 0.00 | 0.00 | 0.00 | 23 | 1019.0 |
| 20260503150535 | 50 | 198 | 1.0 | 10.0 | 0.00 | 0.00 | 0.00 | 34 | 1019.8 |
| 20260503131013 | 42 | 180 | 2.0 | 15.0 | 0.00 | 0.00 | 0.00 | 46 | 1020.1 |
| 20260503130509 | 42 | 174 | 0.0 | 6.0 | 0.00 | 0.00 | 0.00 | 46 | 1020.2 |
| 20260503110544 | 35 | 199 | 0.0 | 5.0 | 0.00 | 0.00 | 0.00 | 56 | 1019.1 |